EW7304 Weather Reports


time (UTC)temp
C
wind
direction
speed
KPH
gust
KPH
rain 1hr
cm
rain 24hr
cm
rain mn
cm
humidity
%
barometer
mb
20260504000035 23 212 0.0 4.8 0.00 0.00 0.00 50 1018.4
20260503234544 25 167 0.0 9.7 0.00 0.00 0.00 47 1018.5
20260503233032 25 119 0.0 4.8 0.00 0.00 0.00 47 1018.7
20260503231530 25 81 0.0 4.8 0.00 0.00 0.00 46 1018.6
20260503230029 25 27 0.0 4.8 0.00 0.00 0.00 46 1018.8
20260503224527 25 214 1.6 9.7 0.00 0.00 0.00 46 1018.8
20260503223027 25 169 1.6 9.7 0.00 0.00 0.00 45 1019.2
20260503221525 25 221 0.0 4.8 0.00 0.00 0.00 46 1019.0
20260503220039 25 59 0.0 4.8 0.00 0.00 0.00 45 1019.0
20260503214521 25 89 0.0 8.0 0.00 0.00 0.00 44 1019.4
20260503213019 25 335 0.0 3.2 0.00 0.00 0.00 45 1019.6
20260503211518 25 84 0.0 6.4 0.00 0.00 0.00 46 1019.7
20260503210015 25 30 0.0 8.0 0.00 0.00 0.00 44 1019.9
20260503204514 25 34 1.6 11.3 0.00 0.00 0.00 43 1020.1
20260503203025 25 66 1.6 6.4 0.00 0.00 0.00 42 1020.5
20260503201515 25 49 0.0 6.4 0.00 0.00 0.00 42 1020.7
20260503200010 25 68 0.0 4.8 0.00 0.00 0.00 44 1020.9
20260503194508 25 89 0.0 8.0 0.00 0.00 0.00 40 1021.0
20260503193009 26 217 0.0 9.7 0.00 0.00 0.00 44 1021.3
20260503191513 26 68 0.0 4.8 0.00 0.00 0.00 39 1021.5
20260503190005 25 77 1.6 4.8 0.00 0.00 0.00 37 1021.8
20260503184504 25 63 1.6 8.0 0.00 0.00 0.00 36 1021.9
20260503183002 25 49 0.0 6.4 0.00 0.00 0.00 40 1022.2
20260503181611 26 153 0.0 6.4 0.00 0.00 0.00 41 1022.4
20260503180059 25 205 0.0 8.0 0.00 0.00 0.00 38 1022.5
20260503174557 25 150 0.0 3.2 0.00 0.00 0.00 40 1022.8
20260503173101 25 85 1.6 6.4 0.00 0.00 0.00 41 1023.1
20260503171554 25 169 0.0 4.8 0.00 0.00 0.00 42 1023.2
20260503081617 13 89 0.0 0.0 0.00 0.00 0.00 88 1021.1
20260503080106 13 89 0.0 0.0 0.00 0.00 0.00 87 1020.9
20260503071544 14 89 0.0 0.0 0.00 0.00 0.00 86 1020.9
20260503054540 15 88 0.0 0.0 0.00 0.00 0.00 81 1020.9
20260503053032 15 89 0.0 0.0 0.00 0.00 0.00 81 1020.9
20260503051527 15 89 0.0 0.0 0.00 0.00 0.00 81 1020.8
20260503050034 16 89 0.0 0.0 0.00 0.00 0.00 78 1020.7
20260503044524 16 89 0.0 0.0 0.00 0.00 0.00 77 1020.6
20260503043024 16 89 0.0 0.0 0.00 0.00 0.00 76 1020.5
20260503041523 16 89 0.0 0.0 0.00 0.00 0.00 76 1020.6
20260503040021 16 89 0.0 0.0 0.00 0.00 0.00 74 1020.5
20260503034534 17 89 0.0 0.0 0.00 0.03 0.00 74 1020.3
20260503033028 17 89 0.0 0.0 0.00 0.03 0.00 75 1020.1
20260503031521 17 89 0.0 0.0 0.00 0.03 0.00 74 1020.0
20260503030020 17 89 0.0 0.0 0.00 0.03 0.00 73 1020.1
20260503024519 17 94 0.0 0.0 0.00 0.10 0.00 70 1020.0
20260503023018 18 94 0.0 0.0 0.00 0.10 0.00 68 1019.8
20260503021517 18 94 0.0 0.0 0.00 0.10 0.00 66 1019.7
20260503020018 19 94 0.0 0.0 0.00 0.10 0.00 63 1019.7
20260503014531 20 94 0.0 0.0 0.00 0.18 0.00 59 1019.4
20260503013024 20 94 0.0 0.0 0.00 0.18 0.00 59 1019.2
20260503011515 21 94 0.0 0.0 0.00 0.18 0.00 55 1019.2
20260503010015 21 97 0.0 0.0 0.00 0.18 0.00 54 1018.9
20260503004515 22 82 0.0 1.6 0.00 0.69 0.00 52 1018.7
20260503003015 22 89 0.0 3.2 0.00 0.69 0.00 52 1018.5
20260503001513 22 331 0.0 3.2 0.00 0.69 0.00 49 1018.5